Theta_e
312 312 312 312 312 312 312 312 312 312 312 311 311 311 311 311 311 311 310 309 309 309 309 310 310 311 311 312 312 312 311 314 315 315 316 316 314 314 313 314 314 313 314 314 314 315 315 316 315 315 315 317 317 317 318 316 317 320 328 335 325 317 317 316 318 319 319 318 315 315 316 315 316 316 316 316 315 314 315 314 314 314 314 313 313 312 312 312
311 311 311 311 311 311 311 311 311 311 311 311 311 311 311 310 309 309 308 309 309 309 310 310 310 311 311 312 312 311 311 315 316 314 314 314 313 314 314 313 313 313 313 314 314 314 315 315 315 315 315 316 317 317 317 317 317 317 326 331 321 317 316 314 316 315 316 317 315 316 315 315 316 315 315 315 315 314 315 314 314 314 314 313 312 312 313 313
310 310 310 310 310 310 310 310 310 310 310 310 310 310 309 308 308 308 308 308 309 309 310 310 310 311 311 312 312 312 312 317 318 314 313 314 314 314 313 314 313 313 314 314 314 314 314 314 315 315 315 316 316 318 317 317 317 316 325 326 317 316 315 314 316 314 316 316 315 316 315 315 315 315 316 315 314 314 314 314 314 314 314 313 312 312 313 313
309 309 309 309 309 309 309 308 308 308 308 308 308 308 308 307 308 308 308 309 309 309 309 310 311 311 311 311 312 312 311 316 319 314 313 314 313 314 313 314 313 313 314 314 314 314 314 314 315 315 316 316 316 317 316 316 317 316 322 321 315 314 315 315 316 315 315 315 315 315 315 315 315 316 316 315 316 315 313 313 315 315 314 314 313 312 313 313
307 307 307 307 307 307 307 307 307 307 307 307 307 307 307 308 308 308 308 309 309 309 310 310 310 311 311 311 312 312 311 317 319 314 313 313 313 313 313 313 314 314 314 314 314 315 315 315 315 315 316 316 316 317 317 316 317 317 317 317 315 315 316 316 315 316 314 315 316 315 315 316 315 316 316 315 317 317 314 313 314 315 315 314 313 312 313 313
307 307 307 307 307 307 307 307 307 307 308 307 308 308 308 308 308 308 309 309 309 309 310 310 310 311 311 312 312 311 313 318 317 313 313 313 312 313 314 314 314 314 314 314 315 315 315 315 315 315 315 315 316 318 317 316 317 319 317 315 316 316 316 316 316 316 315 315 315 315 316 316 315 316 316 315 315 316 314 313 313 313 314 314 313 312 313 314
308 308 308 308 308 308 308 308 308 308 308 308 308 308 308 309 309 309 309 309 310 310 310 310 310 311 311 312 312 312 315 316 314 314 314 312 313 314 314 315 315 315 315 315 315 316 315 315 316 315 316 317 316 316 317 316 316 319 318 316 317 316 316 316 316 316 315 315 315 315 315 315 316 316 315 315 314 315 314 312 312 312 312 312 312 312 313 314
309 309 309 309 309 309 309 309 309 309 309 309 309 309 309 309 309 309 310 309 309 310 310 310 311 311 311 311 312 314 315 315 314 314 313 312 314 314 314 315 315 316 315 316 316 315 316 316 316 316 317 317 317 316 316 317 316 318 318 316 317 317 316 316 316 316 315 315 315 315 315 315 316 315 314 314 314 314 313 312 311 311 312 311 312 312 313 314
312 311 311 311 311 311 311 311 310 310 310 310 310 310 310 310 310 310 310 310 310 310 310 311 311 311 311 311 312 313 315 316 315 314 313 313 314 314 314 314 315 316 315 316 316 315 316 316 316 316 316 316 317 316 315 318 317 316 316 316 316 316 316 316 316 316 316 316 315 315 315 315 315 315 314 313 313 313 312 311 311 311 311 312 312 312 313 314
312 312 312 312 312 312 312 312 312 312 311 311 311 311 311 310 311 310 310 310 310 310 310 310 311 311 311 311 313 314 315 317 315 313 313 314 314 313 314 314 315 315 316 316 316 316 316 316 316 315 316 316 316 316 315 318 318 315 316 316 316 316 316 316 316 316 316 315 315 316 315 315 315 315 315 313 312 312 312 311 311 312 312 312 312 313 313 313
311 311 311 311 311 311 311 311 311 311 311 312 312 311 311 311 311 311 311 310 310 310 310 310 310 310 311 311 314 315 316 316 314 313 314 314 314 313 313 314 315 315 316 317 316 316 316 316 316 316 317 316 316 316 315 316 316 315 315 316 316 316 316 316 316 316 316 315 315 315 315 314 313 315 315 313 312 312 311 311 311 312 312 311 312 313 313 313
310 310 309 309 309 309 309 309 309 310 310 310 311 311 311 311 311 311 311 310 310 310 310 310 310 310 310 310 311 314 317 317 315 314 314 314 313 312 313 314 315 315 316 317 316 317 316 316 317 317 317 316 316 316 315 316 315 315 315 317 319 318 318 317 315 316 316 316 315 315 315 317 315 314 314 313 312 311 311 312 311 312 312 311 312 312 312 312
309 309 309 309 308 309 309 309 309 309 309 310 310 310 310 311 311 311 311 310 310 310 310 309 309 309 310 311 311 311 314 316 316 315 313 313 312 312 313 314 315 315 316 317 317 317 316 316 316 316 316 316 316 315 316 315 315 317 315 315 320 322 323 319 314 316 316 315 315 315 318 324 320 312 312 312 311 312 312 311 311 312 312 311 312 312 312 312
309 309 308 309 308 309 309 309 309 309 310 309 309 310 310 310 310 310 311 310 310 310 309 309 309 309 310 311 312 313 313 314 315 314 313 312 312 313 313 314 315 315 316 316 317 317 316 316 316 316 316 316 316 315 317 315 315 318 316 318 321 321 327 322 313 316 316 314 315 315 318 326 322 312 311 313 312 312 312 312 312 312 311 311 311 311 311 312
309 309 308 309 309 308 309 309 309 310 310 310 310 309 309 309 309 310 311 310 310 309 309 309 309 310 312 312 312 313 314 314 314 313 313 313 312 313 313 314 315 315 316 316 316 316 315 315 315 316 315 315 316 316 320 321 319 318 318 327 326 320 329 325 313 315 317 315 313 315 320 324 320 312 311 312 312 313 312 312 312 312 312 311 311 311 311 312
310 309 309 309 309 309 309 309 309 309 310 310 309 309 308 309 309 309 310 310 310 309 308 310 310 311 313 314 313 314 314 314 314 313 313 313 312 313 314 315 315 315 316 315 316 315 315 315 316 316 315 316 317 320 326 328 327 324 319 327 328 321 326 323 315 315 315 315 313 315 320 323 319 312 311 311 312 313 313 313 313 312 312 311 311 311 311 311
310 309 309 309 309 309 309 309 309 309 309 309 308 308 308 308 309 309 310 310 309 309 308 311 313 313 313 314 314 315 315 314 313 314 314 313 313 313 314 315 315 315 315 315 315 315 315 315 315 316 316 316 317 323 328 327 329 331 320 320 326 324 322 321 320 316 313 315 315 314 316 319 319 312 311 312 311 312 313 313 313 312 312 311 310 310 310 310
309 309 309 309 309 309 309 309 309 309 309 308 308 308 308 308 308 309 309 309 309 309 310 312 314 314 313 314 314 315 315 315 314 313 314 313 313 314 315 315 315 316 315 315 315 315 315 314 316 320 319 316 317 322 328 328 330 330 324 322 326 326 323 321 322 318 315 316 316 316 316 316 317 313 311 312 312 312 313 312 312 312 311 311 310 310 310 309
308 308 308 308 308 308 308 308 308 308 308 308 308 308 307 308 308 308 308 308 310 311 311 313 313 313 314 314 313 314 315 315 315 314 314 314 314 314 315 315 316 315 315 316 316 314 315 316 320 323 322 319 317 319 324 329 328 326 329 331 327 325 325 322 321 318 316 317 317 317 317 316 317 316 312 311 312 312 312 312 312 312 311 310 310 309 309 309
308 308 308 308 308 308 308 308 308 308 307 307 308 307 308 309 310 310 309 309 309 311 312 314 313 312 314 315 314 314 315 315 315 315 315 314 314 315 315 315 315 315 315 319 319 314 315 320 323 324 323 321 319 318 319 321 322 321 324 327 324 323 324 323 321 316 314 317 320 319 317 317 318 318 313 311 313 311 311 312 311 312 311 310 310 309 309 308
307 308 308 307 308 308 308 308 307 307 307 307 307 307 309 310 311 312 312 311 310 309 310 312 314 314 313 315 315 315 315 315 315 315 315 315 314 315 316 315 316 318 316 317 317 315 316 321 324 325 322 319 319 319 317 317 319 318 320 321 323 325 324 323 321 316 314 317 323 323 319 319 320 319 314 311 311 311 311 311 311 311 311 310 310 308 309 308
307 307 307 308 308 308 307 307 307 308 307 307 307 307 310 311 312 314 315 315 314 312 311 311 312 314 314 315 316 315 315 316 316 316 315 315 315 316 316 315 318 322 318 316 318 318 319 321 322 320 317 317 319 319 318 319 318 319 322 321 324 327 325 325 321 316 316 317 324 327 321 320 321 319 316 312 310 311 311 312 312 311 310 310 310 309 308 308
310 308 308 307 308 307 307 307 307 308 307 307 307 307 312 315 314 314 315 316 316 314 315 314 312 312 315 316 316 315 315 317 317 317 315 314 315 316 315 316 318 321 319 319 322 322 323 326 321 315 315 318 319 319 319 321 320 322 322 321 325 327 324 325 323 317 316 318 321 323 321 319 318 318 317 312 310 312 311 312 312 311 311 310 309 309 308 308
314 312 310 308 308 307 307 308 307 308 307 307 307 307 312 317 316 316 315 315 316 314 312 315 314 312 314 316 317 316 315 316 316 316 316 315 315 315 315 316 317 319 318 318 321 321 323 324 319 316 317 318 318 320 320 320 322 325 324 322 325 326 323 324 324 320 321 323 321 319 322 325 322 320 320 313 310 311 310 311 311 310 311 310 309 309 308 308
316 314 312 309 308 308 308 309 308 308 308 308 307 307 312 316 316 315 313 313 316 316 313 313 314 314 313 314 316 316 315 316 315 315 316 315 316 316 315 315 317 318 318 318 319 320 319 317 318 320 320 319 318 320 324 324 323 325 327 324 322 324 324 323 325 324 326 330 325 320 326 334 332 326 322 315 311 312 309 308 309 309 309 309 309 308 308 308
319 317 313 309 308 309 311 311 309 308 308 308 307 307 312 315 315 313 312 315 317 316 316 315 315 316 314 315 316 315 315 315 315 315 315 315 315 316 317 317 317 317 317 318 318 319 319 317 318 321 321 322 321 320 324 325 322 324 325 326 325 324 322 322 325 326 329 330 324 321 327 330 328 326 324 319 315 313 310 307 307 308 308 308 308 308 307 307
322 320 315 310 308 310 312 313 310 308 308 309 307 307 311 313 312 311 313 318 318 316 318 317 316 316 315 316 315 314 315 316 315 316 315 315 315 315 318 318 317 317 316 318 320 320 320 319 320 321 322 324 322 322 324 322 324 327 324 326 330 326 323 324 325 325 328 328 322 322 325 324 323 323 322 320 318 314 311 309 307 306 308 307 307 307 307 307
322 322 319 313 309 309 312 313 312 310 309 310 308 307 312 312 311 313 315 316 316 317 319 317 315 316 316 316 315 314 315 316 317 317 315 315 316 315 317 317 317 318 317 318 322 321 319 321 323 322 322 323 323 325 327 323 324 326 323 325 329 327 326 326 325 325 325 324 322 322 322 323 325 326 319 315 317 318 314 311 308 306 307 307 307 307 306 306
322 322 321 316 310 310 312 314 314 311 310 311 309 308 312 312 312 316 317 315 316 319 318 317 317 316 316 316 315 315 315 315 317 317 315 315 316 316 316 316 316 317 317 317 320 322 320 319 320 322 323 324 323 323 325 326 323 321 320 324 327 327 327 325 324 325 324 323 324 323 321 323 327 327 320 315 318 320 316 312 308 305 306 307 306 306 306 306
322 322 322 318 312 311 312 314 314 312 312 312 310 310 313 313 313 316 316 314 317 321 315 314 318 316 316 316 315 316 316 315 315 315 315 315 315 315 316 316 315 318 322 321 322 321 317 315 315 320 321 319 319 317 316 321 320 318 322 327 328 327 327 327 324 323 323 324 324 323 322 322 325 328 324 318 320 320 317 315 309 305 306 306 306 306 305 305
322 322 322 319 316 313 313 314 314 312 313 313 311 312 314 317 317 317 316 313 314 319 314 314 318 317 315 317 317 317 315 314 313 314 316 315 315 315 316 317 317 320 323 324 324 320 316 317 317 317 315 315 318 317 314 316 316 319 327 328 326 327 327 326 322 321 324 325 324 322 321 320 323 329 326 319 320 319 318 319 312 305 305 305 305 306 305 305
322 322 322 321 319 316 314 314 313 312 314 314 314 314 315 318 319 318 315 312 313 318 317 317 319 317 316 318 318 317 317 316 313 315 317 316 317 316 316 319 319 320 322 321 323 321 320 321 319 316 314 316 322 322 319 319 319 321 326 325 324 324 325 325 322 321 323 323 320 317 319 320 321 324 322 319 320 317 315 315 311 306 304 305 305 305 304 304
322 321 321 322 320 319 317 314 313 313 315 315 315 317 318 317 317 316 314 312 316 320 319 319 319 318 318 319 320 317 317 318 314 315 316 315 317 316 316 319 318 322 327 323 320 322 324 323 319 317 317 316 320 322 321 322 321 321 323 325 326 324 325 328 325 323 324 324 319 314 317 321 322 322 321 319 316 312 309 311 311 309 306 305 305 305 304 304
323 321 321 321 320 320 318 314 314 315 316 316 316 319 320 316 314 315 314 313 317 319 319 320 319 318 318 320 320 317 317 318 315 315 317 316 318 318 318 319 316 321 329 324 319 321 325 326 322 319 319 318 318 319 322 324 320 318 321 323 325 326 330 330 326 325 327 325 318 314 318 324 326 323 316 311 309 308 308 310 310 309 307 305 305 304 304 303
322 321 319 320 319 319 317 314 315 317 317 317 318 319 319 316 314 315 314 314 320 320 319 319 319 319 320 320 320 317 318 320 315 315 318 318 318 318 318 317 315 319 324 322 321 320 321 326 323 317 316 318 318 317 318 321 320 318 320 322 323 327 329 326 323 322 321 322 319 316 322 325 323 318 310 307 308 307 307 308 307 306 305 304 304 303 304 303
321 320 319 319 319 319 318 314 314 317 317 317 318 318 318 316 316 316 315 315 320 322 319 319 320 321 321 321 320 317 318 320 317 317 319 317 317 318 317 317 315 317 319 320 324 323 323 325 320 314 315 315 315 316 315 318 321 319 319 321 321 322 323 323 322 318 316 321 322 318 322 323 320 316 311 309 310 308 306 306 305 304 304 304 303 303 303 303
321 319 318 318 319 319 318 315 314 316 317 318 318 318 317 317 316 317 317 315 318 320 321 320 321 322 321 320 321 319 318 320 318 318 319 318 319 318 317 318 316 315 317 319 323 326 327 325 317 315 318 313 310 313 313 313 318 321 321 320 318 319 321 323 324 322 320 323 322 319 321 322 322 320 313 309 312 311 308 306 304 303 303 303 303 303 303 302
320 319 317 318 318 319 318 316 315 316 317 318 318 318 317 317 317 317 318 317 318 320 321 320 319 321 321 321 321 319 319 320 318 318 320 318 320 319 317 318 317 315 316 317 321 325 326 325 318 314 316 313 311 314 317 313 313 319 320 317 319 323 324 323 323 324 324 323 323 323 321 319 320 320 317 314 314 313 309 307 305 303 302 302 302 302 302 302
320 318 317 318 318 318 317 316 315 316 317 317 317 317 317 318 317 317 319 319 319 320 320 319 318 320 322 321 321 319 318 320 317 317 320 319 319 319 316 318 319 315 314 316 320 324 324 324 321 314 313 315 314 316 321 318 313 315 316 314 318 323 323 323 322 322 325 324 324 324 322 322 322 320 322 321 315 311 309 308 306 304 302 303 303 302 302 302
320 317 317 319 318 318 317 315 315 316 317 316 316 315 316 317 317 317 318 319 320 319 319 319 318 320 322 321 321 320 319 319 317 317 320 319 319 319 317 318 320 317 315 315 319 322 321 322 322 315 312 314 316 317 320 319 316 316 318 317 317 318 319 321 320 321 325 324 324 323 322 327 325 317 318 320 314 309 308 308 306 304 303 303 303 303 303 302
319 317 318 320 319 318 317 315 316 316 316 315 315 315 315 316 317 317 317 319 320 319 318 321 321 320 321 321 320 320 319 319 317 317 319 318 319 322 319 317 319 318 317 317 319 321 321 323 324 318 314 316 320 318 314 316 318 316 316 317 317 317 318 320 320 320 321 322 326 324 321 326 323 313 314 317 313 308 307 307 306 304 304 304 304 304 303 303
318 318 318 319 319 318 316 316 316 316 315 314 313 314 315 316 317 318 318 318 320 319 318 321 322 321 322 321 320 320 320 319 318 318 319 318 319 322 319 316 317 317 317 318 319 318 319 323 324 320 316 315 317 313 309 313 318 315 315 318 318 317 318 320 322 321 320 320 322 322 321 322 317 312 312 312 309 307 306 306 305 305 305 304 304 304 303 303
317 317 318 318 318 318 316 317 317 315 314 312 312 314 314 315 317 318 319 318 319 320 319 320 321 321 323 322 321 320 319 319 319 318 318 318 318 317 314 314 317 317 318 321 320 317 319 322 323 321 317 314 314 312 310 312 315 315 317 319 317 316 317 320 323 322 321 321 319 319 321 319 313 310 309 306 306 307 306 306 306 305 305 304 304 304 303 303
315 316 317 318 318 318 317 317 317 314 313 312 312 313 314 314 316 317 319 319 319 320 320 320 320 320 322 323 323 322 320 320 320 319 320 321 318 313 311 313 316 317 318 320 320 318 320 322 323 322 321 318 317 316 314 314 314 315 318 317 315 316 316 318 320 320 319 320 321 320 321 321 316 311 309 307 307 307 305 306 307 306 305 305 305 304 303 303
314 315 316 317 318 317 317 318 316 313 312 312 312 312 313 314 314 316 318 318 318 319 320 320 319 319 321 322 322 323 321 321 322 320 321 323 318 311 309 311 315 316 316 316 316 317 322 323 322 322 323 322 322 320 319 316 314 314 316 315 314 316 316 317 318 318 318 319 320 319 320 322 318 312 311 311 310 309 306 306 306 306 306 305 305 304 304 303
314 315 315 315 316 316 315 316 315 313 312 311 311 312 313 314 314 315 316 318 318 318 318 318 318 319 321 321 321 323 322 321 322 321 321 324 320 311 308 309 311 312 312 313 314 318 323 323 320 321 322 321 322 322 319 317 316 315 316 316 315 315 316 316 317 318 319 320 319 318 319 321 318 314 314 313 311 311 308 305 305 306 306 305 305 305 304 304
313 314 314 315 316 315 314 313 315 315 313 311 312 312 312 313 315 315 316 317 318 317 317 317 317 319 321 320 321 322 321 321 320 320 321 322 317 310 307 308 309 310 311 311 312 318 323 321 319 321 321 319 321 321 318 317 317 316 316 315 315 315 315 316 317 318 320 320 320 319 319 320 318 316 315 312 312 312 308 305 305 306 305 306 306 305 305 304
313 313 314 315 316 317 315 314 314 315 314 312 313 313 312 312 314 315 316 316 316 318 317 317 317 319 319 320 320 320 320 320 319 319 320 318 315 312 310 309 309 308 310 311 311 316 322 320 318 320 320 319 320 319 317 316 316 316 316 315 315 314 315 316 316 317 318 319 318 319 320 320 318 316 314 310 309 309 307 305 306 306 305 306 306 305 305 304
312 312 312 314 316 316 315 314 312 314 315 313 313 314 313 313 313 314 315 315 316 317 317 318 318 318 318 319 319 319 319 320 319 319 318 316 315 315 314 314 311 307 309 313 312 313 318 320 318 318 319 319 318 316 315 316 316 316 316 315 314 314 314 315 315 315 317 317 317 319 321 320 318 316 313 308 306 306 306 306 307 306 306 306 305 305 305 305
311 312 311 312 313 313 313 313 313 314 314 313 314 314 313 313 313 313 314 315 316 316 317 317 317 317 317 317 317 318 318 319 320 319 317 316 316 315 316 317 313 308 309 313 312 311 315 318 317 316 317 318 316 314 314 315 316 316 316 315 314 312 312 313 314 315 315 316 316 316 317 319 317 312 308 307 306 305 305 305 306 306 306 306 305 305 305 306
310 311 312 312 312 312 312 313 313 315 314 313 313 314 314 314 313 313 314 314 315 316 316 317 317 317 316 316 316 317 317 317 318 316 315 316 316 315 316 315 313 312 310 311 313 313 313 315 315 315 317 317 316 314 313 313 313 314 314 313 312 312 313 313 313 314 314 315 316 316 315 318 316 308 306 307 306 304 305 305 305 305 306 306 306 306 306 307
308 310 311 311 312 313 312 313 314 314 314 313 312 313 314 314 313 313 314 314 313 314 315 315 316 316 316 315 316 316 316 315 315 314 313 314 314 313 314 312 312 314 313 310 312 312 312 313 314 314 317 317 314 313 312 312 314 316 316 315 313 312 313 314 313 313 313 314 316 316 315 316 316 311 309 309 307 306 305 305 305 306 306 306 307 307 308 309
Wind_Speed
16 15 14 14 13 13 13 12 11 10 10 9 9 8 8 8 8 8 8 8 8 8 7 6 5 3 2 2 2 3 3 3 4 5 4 3 5 7 9 9 9 10 10 9 7 6 5 5 5 5 5 4 6 8 6 8 11 6 2 5 2 1 1 1 1 2 5 4 4 4 4 5 4 3 4 1 1 7 8 8 9 7 6 7 5 4 4 4
15 14 14 13 13 13 12 12 11 11 10 10 9 9 8 8 8 8 8 8 7 7 6 5 4 3 2 1 2 3 2 2 5 6 6 8 9 9 9 7 6 7 9 10 8 7 6 5 5 6 6 2 4 7 6 8 9 5 3 4 1 2 2 2 5 5 5 6 7 6 4 4 4 4 4 1 3 7 9 8 9 8 8 7 4 3 4 4
13 13 13 12 12 12 11 11 11 10 10 10 9 9 9 8 8 8 8 8 7 7 6 5 4 2 1 1 1 2 2 1 4 6 9 10 8 8 6 3 3 6 8 9 7 6 5 5 6 8 7 2 3 5 5 9 7 4 4 4 1 3 4 7 10 9 7 8 9 8 3 3 3 3 3 2 4 5 7 7 7 8 8 6 4 4 4 4
12 12 12 12 12 11 11 11 11 10 10 10 9 9 9 9 9 9 8 7 7 6 5 4 3 2 1 1 2 3 1 1 2 5 8 8 6 4 2 1 4 6 8 8 5 6 5 5 6 7 6 1 3 6 5 9 6 3 3 4 3 3 4 5 8 7 7 7 6 5 3 3 4 3 0 3 5 2 5 8 8 9 8 6 5 5 5 4
12 12 12 12 12 11 11 11 10 10 10 10 9 9 9 9 9 8 8 7 7 6 5 4 3 2 1 2 3 3 1 1 4 8 7 5 4 2 2 3 5 5 6 5 4 6 5 5 6 7 5 1 3 5 3 7 6 3 3 4 4 5 4 3 6 5 3 3 3 2 3 3 3 1 2 3 4 3 8 9 8 9 7 6 5 5 6 5
11 11 11 11 11 11 10 10 10 10 10 10 10 9 9 8 8 8 7 7 6 6 5 4 3 2 2 2 3 3 0 1 6 10 6 1 2 3 3 4 5 5 5 3 5 6 5 5 7 6 5 3 4 4 1 6 6 2 1 4 7 6 4 5 3 2 1 2 3 1 2 2 1 3 4 5 5 7 10 8 7 8 9 9 7 6 7 6
12 11 11 10 10 10 10 10 10 10 10 9 9 9 8 8 7 7 7 7 6 6 5 4 4 3 3 3 4 3 2 2 8 9 5 1 1 2 5 5 5 5 4 4 4 5 5 6 7 6 5 4 4 3 2 5 5 4 1 2 4 3 4 5 4 3 3 3 3 1 2 3 2 2 2 5 6 9 10 5 6 8 10 10 9 8 7 5
13 12 11 11 10 10 10 10 9 9 9 9 9 8 8 8 8 7 7 6 6 6 6 5 4 4 3 3 3 3 4 4 8 8 5 2 1 2 4 4 5 5 5 6 5 5 6 7 8 6 4 3 3 3 3 6 5 4 1 2 2 1 2 5 5 4 5 4 4 4 5 6 5 4 3 8 10 9 9 6 6 9 9 9 9 8 5 5
13 13 12 12 12 11 11 10 10 10 9 9 9 9 8 8 8 7 7 7 7 7 6 6 5 5 4 4 3 3 5 5 8 7 4 3 3 2 3 3 3 3 4 6 5 5 5 6 7 5 3 2 3 3 4 5 2 1 0 3 3 3 3 6 8 7 7 6 6 4 6 8 7 5 3 8 12 10 9 9 9 10 9 8 6 5 4 4
14 13 13 13 13 12 12 11 11 10 10 10 9 9 9 9 9 8 8 8 7 7 7 6 6 5 4 4 4 2 3 6 8 7 5 5 4 1 2 2 2 2 3 5 4 4 4 4 3 3 2 2 3 2 3 3 1 1 2 5 7 9 9 8 10 10 9 8 8 6 5 8 6 5 4 10 14 11 11 11 11 10 8 6 5 4 4 4
15 15 14 13 13 12 12 12 11 11 10 10 10 10 9 9 9 9 8 8 8 8 7 7 6 6 5 5 6 4 4 7 7 6 6 6 4 2 2 2 2 1 0 3 4 3 3 2 1 2 1 2 3 2 3 4 2 1 3 6 9 11 11 11 11 11 9 6 9 9 4 5 3 4 6 13 16 12 13 13 12 10 7 6 5 5 4 4
17 16 15 14 13 13 12 11 11 10 10 10 9 9 9 9 9 8 8 8 8 8 8 7 6 7 6 7 10 8 5 7 7 7 7 6 4 4 3 2 1 0 1 1 3 3 2 1 1 2 2 1 2 2 3 2 0 2 2 4 7 7 7 11 12 13 10 4 8 8 2 4 4 5 6 14 17 14 14 14 12 10 8 7 6 6 6 5
18 17 16 16 15 14 13 12 11 10 10 9 9 9 9 9 8 8 8 8 8 8 8 7 7 7 6 7 10 9 8 9 8 8 8 7 7 7 5 3 3 2 2 2 2 2 0 1 0 2 2 1 1 1 1 2 1 3 2 1 3 6 5 7 7 12 9 4 9 8 1 5 6 6 9 15 18 16 15 14 13 11 9 8 7 7 7 7
20 19 18 17 16 15 14 12 11 11 10 10 9 9 9 9 9 9 9 8 8 8 7 7 7 7 7 7 8 8 11 11 12 12 11 10 9 7 6 5 4 3 3 3 3 2 2 1 2 2 1 1 1 1 1 2 2 1 1 1 1 2 4 6 2 12 8 4 9 8 1 6 6 6 14 16 18 18 17 16 14 12 11 9 8 8 8 8
22 21 20 19 18 16 15 14 13 12 11 11 10 10 10 10 10 10 9 9 9 8 8 7 7 6 6 7 8 9 11 13 14 14 12 10 9 8 7 6 5 4 4 3 3 2 2 3 3 2 3 2 2 2 3 3 1 1 1 3 3 2 4 7 2 11 6 3 8 6 1 6 6 8 15 16 19 19 17 17 16 14 13 11 10 9 9 8
24 23 22 21 20 18 17 16 14 14 13 12 11 11 12 11 11 11 10 10 9 8 7 6 6 6 4 6 8 9 12 15 15 15 13 11 10 9 7 6 5 4 3 3 3 3 4 4 3 4 4 3 3 4 4 4 4 2 2 3 3 2 3 4 1 6 5 3 5 4 3 4 5 10 16 16 20 19 17 18 18 16 15 13 12 11 10 9
25 24 23 22 21 21 19 17 16 15 14 13 12 12 12 12 12 12 11 10 9 8 7 5 5 5 6 7 8 11 14 15 15 14 13 12 11 9 7 5 4 3 3 3 4 4 5 4 4 3 2 1 2 5 5 3 4 3 0 2 4 2 2 1 4 5 5 5 4 4 4 5 6 9 18 19 20 20 19 20 21 19 16 14 13 12 10 10
26 25 25 24 23 22 20 18 18 17 16 15 14 13 13 12 12 12 11 11 10 6 5 7 5 1 7 12 12 12 14 14 14 12 11 12 11 8 6 4 4 5 5 5 4 5 5 3 3 1 2 2 1 5 3 3 4 2 2 2 3 2 1 3 3 3 6 4 4 4 5 9 9 6 16 20 20 22 21 20 21 19 17 16 15 13 12 11
26 26 25 25 24 23 21 19 19 19 17 16 15 14 13 11 10 10 11 11 11 6 3 10 13 4 2 9 14 13 11 12 13 12 12 12 11 9 7 5 6 7 6 4 2 6 6 3 4 2 1 2 4 6 6 8 6 5 5 4 3 3 4 4 4 4 7 4 5 7 7 9 8 7 12 18 21 23 21 18 19 20 18 18 16 15 14 13
24 24 24 24 24 23 22 21 21 19 18 17 16 14 11 8 5 5 11 16 18 16 8 9 15 12 4 3 10 13 10 10 12 13 14 13 13 11 10 8 7 5 4 5 3 4 6 3 2 4 6 7 7 9 9 8 6 4 3 3 4 4 4 4 3 3 4 3 5 8 7 7 8 6 11 20 21 20 19 16 20 22 20 20 18 17 17 15
21 21 22 21 22 22 22 22 21 20 19 17 18 14 10 10 6 4 10 16 20 23 19 13 12 14 12 7 8 11 11 11 12 14 13 14 15 12 11 10 7 2 3 6 4 3 5 4 6 9 9 8 7 9 9 8 7 4 2 3 3 2 5 5 2 2 1 2 5 5 5 8 8 7 9 17 16 16 22 21 22 24 22 21 20 19 19 16
18 19 19 20 20 20 21 21 20 20 19 18 19 16 12 13 12 8 7 8 13 19 22 21 18 17 16 13 10 12 12 9 10 13 14 18 17 11 11 10 4 3 4 4 4 2 3 4 8 12 10 7 6 5 5 6 5 3 2 2 2 3 4 5 3 1 0 1 4 6 5 8 9 9 10 15 17 16 21 23 24 25 23 22 21 21 20 17
16 16 17 19 19 19 20 20 20 20 19 19 19 18 14 12 13 10 6 4 9 14 19 22 25 25 20 15 14 17 15 9 10 16 18 20 18 14 13 10 4 4 4 4 5 4 4 5 11 15 11 6 6 4 5 3 2 3 3 3 3 3 2 3 4 2 1 1 3 5 5 6 7 10 10 9 14 12 13 19 22 24 23 22 23 22 20 18
14 15 16 17 18 19 18 18 20 19 18 18 19 19 16 11 10 7 5 3 6 11 18 20 24 29 28 20 18 21 19 13 13 17 21 23 19 14 12 11 7 4 4 8 9 7 7 6 7 10 10 7 6 5 5 4 2 3 4 5 4 4 5 6 3 2 3 4 3 3 6 6 5 10 8 2 5 9 11 14 17 19 21 21 21 21 19 17
12 14 15 15 17 18 17 17 18 17 18 18 18 20 16 10 8 5 2 2 5 7 12 17 19 24 29 25 20 20 17 14 15 17 22 26 21 11 9 12 8 4 7 9 8 7 9 9 5 4 6 8 7 6 6 7 4 4 4 7 7 7 7 6 3 4 4 5 4 2 3 6 3 6 6 1 3 6 8 11 15 17 19 20 20 20 18 16
11 13 14 16 18 17 16 16 15 15 17 18 17 19 16 10 8 5 3 2 4 4 4 11 13 13 20 23 22 18 8 10 15 17 19 22 22 13 6 8 6 5 8 6 4 4 5 9 8 5 6 7 7 6 5 7 5 3 5 5 7 7 6 4 0 2 1 4 3 3 1 7 5 5 7 4 6 8 6 8 13 17 18 20 21 20 19 18
12 12 13 17 19 20 18 15 14 16 16 14 15 18 17 12 9 6 4 4 5 6 7 9 11 10 14 20 28 18 2 6 13 16 22 22 23 17 7 5 5 5 6 4 3 3 3 8 8 7 7 7 7 6 5 7 7 3 5 4 5 5 5 4 4 3 3 3 4 2 3 5 7 7 6 5 7 7 7 8 11 17 20 20 21 21 20 20
15 12 12 16 21 23 20 16 16 17 13 11 14 19 18 15 11 7 5 1 3 6 6 7 10 11 13 21 31 19 6 12 11 13 26 26 22 15 7 7 6 6 7 6 5 4 2 7 8 9 7 6 6 4 5 8 6 4 5 5 6 6 5 4 5 2 2 2 4 2 4 3 8 5 1 3 5 8 11 12 11 16 21 22 23 22 21 21
19 15 13 15 20 23 20 16 16 14 11 11 15 20 20 17 11 6 3 1 3 4 3 8 10 11 17 21 23 15 10 7 4 12 23 22 19 11 4 7 5 5 7 6 6 3 1 5 6 7 6 5 4 1 1 5 5 4 4 6 6 5 4 4 4 3 2 2 5 5 5 3 6 3 2 2 4 9 10 9 10 16 23 24 24 24 23 22
22 19 14 15 21 24 22 19 18 15 14 15 19 24 23 17 8 4 1 3 2 1 4 9 9 13 21 16 7 7 7 2 5 16 15 11 14 8 4 6 3 3 2 3 1 2 0 2 1 3 4 5 6 4 5 1 7 8 6 6 7 6 5 4 2 4 2 4 6 9 10 6 4 4 4 4 5 6 4 3 7 15 22 25 25 25 25 24
27 23 19 19 22 23 24 25 22 20 19 19 23 28 22 9 4 3 5 1 1 1 5 4 4 11 18 13 6 6 5 2 8 14 8 4 8 5 4 5 1 2 1 4 3 3 2 1 1 2 6 7 7 4 6 5 6 8 5 4 4 4 4 5 4 4 1 6 5 9 11 9 7 6 3 5 6 5 5 6 8 13 21 26 26 26 27 26
30 28 24 23 22 22 26 25 21 23 23 21 27 29 17 4 0 5 5 2 1 4 5 4 4 8 12 10 9 9 5 3 7 10 6 4 6 6 6 6 5 3 2 4 3 3 2 3 2 3 5 8 7 4 4 6 4 5 5 6 3 2 3 3 2 0 3 6 4 4 6 6 8 7 7 10 8 5 6 9 14 19 24 27 28 28 27 27
32 31 28 26 24 25 26 22 22 27 25 24 28 21 7 3 7 9 8 3 2 3 4 5 5 8 11 8 6 6 4 3 7 7 4 4 5 7 5 4 6 4 2 6 4 2 2 4 2 3 2 8 10 6 3 2 1 5 6 6 4 2 1 3 3 2 4 5 3 1 4 3 5 4 9 12 6 5 8 10 18 24 29 30 30 30 28 28
32 34 33 30 28 27 25 24 27 28 26 28 25 12 3 6 9 11 12 8 2 2 3 5 6 8 9 6 5 7 4 2 7 6 4 5 5 6 4 6 9 3 3 4 3 6 4 5 5 7 3 9 12 7 6 5 4 5 5 6 5 5 4 4 4 3 4 4 3 1 3 4 3 2 6 6 3 5 4 9 16 21 27 29 30 30 29 29
33 37 36 32 31 31 28 29 31 27 27 27 17 7 8 9 9 10 11 6 3 2 3 6 8 7 6 3 3 7 4 2 6 5 4 6 5 6 6 7 10 6 4 4 2 4 5 6 5 3 2 10 10 5 7 8 2 3 3 4 3 5 5 3 3 5 3 2 3 2 3 4 4 3 4 3 5 6 3 11 16 19 24 28 29 30 30 30
35 38 37 35 37 36 31 33 34 29 28 22 10 8 12 10 8 6 6 5 5 5 6 6 5 5 6 3 3 6 2 2 6 4 3 5 3 6 6 5 11 11 7 7 3 3 4 4 3 3 2 4 4 2 5 6 3 2 3 4 4 4 5 2 3 0 2 2 4 3 4 4 2 3 3 4 3 4 4 9 15 19 24 27 29 30 31 31
37 40 39 41 43 39 35 36 36 34 31 19 8 9 10 9 7 4 3 6 8 10 8 4 4 5 7 4 4 7 3 2 6 5 3 3 3 7 7 4 11 16 12 7 2 3 5 1 3 1 1 2 1 3 3 3 5 5 3 5 2 2 2 2 1 3 1 3 4 3 5 4 2 4 3 4 2 3 3 6 11 17 23 26 27 30 31 31
38 39 40 46 47 43 40 38 38 39 30 13 9 11 8 8 9 4 4 5 8 10 7 6 6 6 7 6 5 8 6 4 6 5 4 4 4 7 10 6 10 19 20 10 2 2 4 1 3 0 2 2 2 4 2 3 4 5 3 4 4 2 1 2 2 2 1 4 5 3 5 5 5 5 2 3 8 9 7 7 9 14 21 25 26 29 30 31
34 32 34 45 48 45 43 41 43 41 23 8 9 11 7 8 9 6 4 2 3 7 7 7 7 4 6 8 6 7 8 6 8 6 4 5 4 7 13 9 9 18 24 17 6 2 3 3 3 1 1 1 2 2 4 2 0 3 2 1 2 2 4 3 3 3 3 3 4 3 2 4 6 6 8 11 14 12 11 10 10 16 23 26 28 31 32 33
31 22 23 37 42 44 46 46 43 31 14 8 11 9 5 6 10 14 14 7 1 4 6 7 7 6 6 7 7 8 7 5 8 7 5 6 5 4 10 11 6 12 22 20 9 2 2 2 3 1 2 1 2 4 8 10 6 3 2 3 2 1 2 1 2 3 4 3 3 3 5 5 4 4 8 11 11 11 14 13 12 18 25 28 30 33 34 35
27 13 14 27 31 40 50 41 26 15 7 8 11 10 8 4 7 16 20 13 5 3 3 4 6 8 6 7 7 7 7 5 8 7 4 6 6 3 8 15 12 11 13 12 8 5 3 3 3 2 1 3 5 5 5 7 7 5 6 7 7 6 4 2 4 2 3 3 4 3 6 7 4 3 4 7 6 9 16 16 14 20 28 30 31 34 34 36
21 8 11 18 22 39 47 25 10 10 7 9 9 8 9 5 3 11 16 15 9 4 3 2 4 7 6 6 8 7 7 6 8 8 6 8 9 5 7 14 17 17 13 7 8 7 4 3 3 2 3 5 5 4 1 2 3 3 2 4 5 6 6 5 6 4 2 3 2 2 5 7 3 2 3 5 6 11 20 19 17 22 29 30 31 32 33 35
20 14 12 12 19 38 38 12 7 12 7 7 8 6 9 7 4 7 11 14 9 3 3 2 2 4 3 4 7 9 9 7 9 11 7 7 8 4 4 9 15 17 11 4 4 4 4 3 3 1 2 2 3 5 5 5 4 1 3 4 6 6 6 6 5 3 3 3 3 1 6 5 2 3 3 5 6 9 20 23 21 22 26 29 31 31 32 34
25 21 13 12 21 34 27 6 6 12 9 9 10 10 10 7 8 9 8 12 10 3 3 4 2 3 3 1 4 8 10 7 9 11 7 6 6 1 1 7 12 13 8 4 6 9 6 2 3 3 1 2 3 3 3 3 1 4 3 3 6 8 7 3 1 2 3 5 8 4 8 5 2 4 3 5 3 6 15 22 23 23 26 29 30 31 32 33
19 15 13 20 34 38 28 16 13 10 9 11 10 14 13 8 13 17 10 9 12 8 4 4 3 2 2 2 2 3 7 4 4 5 3 3 2 1 0 3 7 9 6 4 9 13 8 3 5 6 6 8 5 3 3 2 3 3 2 5 9 11 12 7 2 5 6 4 9 8 9 5 3 4 3 3 2 4 11 17 22 24 27 30 30 30 31 33
11 7 7 14 30 33 24 22 22 12 10 12 8 11 15 10 11 17 15 10 12 12 7 3 3 2 2 3 3 3 4 1 2 3 3 4 2 2 1 1 1 5 5 6 11 10 4 2 8 10 11 12 7 4 5 6 6 5 7 11 12 12 14 9 5 8 5 3 6 10 9 7 6 3 5 6 4 4 6 13 18 21 25 28 29 30 31 32
9 6 7 7 14 19 13 10 13 11 13 16 9 7 16 16 6 8 15 13 12 14 7 0 3 6 7 8 6 5 5 2 2 3 3 4 2 2 1 2 2 4 5 6 10 8 4 4 9 10 12 13 6 3 5 7 9 11 12 14 14 13 14 12 12 11 6 4 10 9 7 10 10 7 9 8 6 6 7 13 19 22 24 27 28 29 30 31
14 9 15 15 7 7 9 10 9 10 14 17 10 6 14 18 11 9 14 13 11 13 8 2 8 14 14 13 8 5 5 3 3 5 3 3 2 1 1 2 2 2 2 3 4 5 3 6 7 7 12 13 3 3 5 5 5 6 9 13 14 15 17 17 19 15 9 8 15 8 8 13 11 8 10 10 12 13 13 16 20 22 25 27 27 29 30 31
18 10 13 18 11 5 11 15 9 7 12 14 11 9 13 18 18 13 8 6 8 13 13 11 15 18 17 13 9 7 8 7 9 9 6 5 4 3 2 0 1 1 2 2 1 2 3 3 3 6 11 12 5 4 4 5 3 3 7 11 13 16 18 18 20 17 12 15 15 5 6 11 7 6 9 13 16 15 13 15 19 23 25 27 29 30 31 30
19 14 10 12 10 6 9 11 7 4 8 11 11 11 12 17 21 16 9 11 12 13 15 19 22 18 16 13 11 12 13 15 16 12 8 7 4 4 4 3 3 2 2 2 1 1 2 2 3 5 6 10 6 5 4 5 5 6 10 13 10 9 11 13 16 14 12 16 15 8 8 9 4 2 4 11 14 13 14 16 18 22 27 29 30 30 30 29
19 19 14 9 6 6 7 6 7 5 6 7 9 10 11 16 21 17 12 16 19 14 16 25 26 15 11 12 14 18 22 20 15 8 12 14 9 8 7 5 7 6 2 3 2 2 3 2 2 4 5 8 6 7 5 4 1 8 18 16 9 7 8 12 14 13 14 16 15 12 12 9 3 1 6 11 14 15 15 17 18 21 26 28 28 29 27 24
20 20 17 11 7 9 9 4 6 8 6 7 10 11 11 14 16 14 9 13 20 21 21 25 20 8 6 13 20 26 27 21 12 7 14 17 12 11 12 11 13 11 6 5 3 3 5 4 2 4 6 6 3 7 6 3 0 10 16 13 14 14 13 13 12 13 15 14 12 12 12 8 6 6 7 8 10 12 16 20 20 22 26 26 24 21 18 18
Wind_Direction
206 207 208 209 209 210 209 208 206 204 204 203 199 194 192 190 190 190 190 189 184 176 167 161 157 149 130 82 34 31 20 8 26 34 53 98 110 119 112 96 79 62 44 34 37 51 66 44 36 47 17 15 36 24 30 24 15 19 84 78 73 90 43 226 109 139 150 146 163 123 86 106 128 131 108 15 21 97 108 103 103 116 104 96 106 107 95 100
201 202 203 203 203 203 200 198 196 194 193 192 190 190 192 192 194 194 192 188 179 172 167 166 163 155 141 68 23 24 26 31 46 56 87 105 117 126 118 102 73 43 28 21 26 43 57 49 47 34 17 41 45 32 38 19 23 38 83 86 100 175 60 85 106 79 104 136 141 124 94 100 126 134 119 345 23 100 112 101 111 117 106 110 125 125 117 119
190 190 191 191 193 192 190 190 188 188 188 188 189 189 191 193 193 192 188 182 174 174 172 174 175 165 152 30 342 14 63 110 64 85 109 108 115 124 119 104 32 360 5 9 19 45 56 54 44 17 13 67 60 45 37 16 23 29 61 82 257 192 77 67 92 78 88 126 124 117 112 88 131 139 119 118 54 87 130 129 135 129 127 140 143 151 149 151
182 184 185 185 186 184 185 187 185 185 186 187 188 187 190 191 190 187 182 180 176 178 178 182 184 178 210 331 321 347 51 190 172 133 118 104 103 112 106 354 338 339 355 2 25 58 59 52 36 9 4 22 69 67 37 11 15 11 62 135 212 155 89 70 95 87 83 103 109 116 107 78 131 151 105 134 82 54 156 148 160 153 155 163 154 163 172 180
180 183 183 183 183 182 184 184 182 182 183 185 185 185 187 187 188 186 181 182 182 184 185 189 195 200 252 302 320 327 36 44 182 160 135 104 81 54 6 353 344 347 1 11 62 77 66 42 16 2 8 13 72 71 25 10 26 42 77 121 97 87 116 129 110 104 81 94 105 96 100 106 146 199 289 190 158 195 170 153 164 170 181 189 181 173 179 196
179 180 182 182 180 181 182 180 180 181 182 183 183 183 184 186 189 187 187 188 189 192 192 196 205 220 266 289 313 308 305 102 169 165 158 106 41 30 32 26 19 13 9 34 82 81 63 34 13 3 25 51 73 95 59 14 32 76 68 70 71 78 130 159 144 135 156 135 141 102 142 162 180 292 274 215 191 183 170 161 173 188 204 211 208 185 183 199
178 179 180 181 181 182 181 180 181 181 182 182 183 183 183 189 190 192 196 196 199 200 202 208 213 232 269 284 301 295 260 199 176 178 196 231 37 56 55 43 41 34 30 54 74 76 58 36 25 21 45 57 59 84 46 16 43 89 14 19 60 65 126 166 193 184 202 187 177 192 229 238 236 272 241 177 170 175 175 172 179 192 200 204 201 181 179 193
182 182 182 181 182 183 182 183 184 184 184 184 184 186 187 191 194 198 201 203 209 209 213 219 223 238 256 279 297 287 263 217 184 189 207 193 122 87 62 43 40 39 59 73 73 81 67 46 42 41 65 66 50 72 40 29 46 78 64 319 360 356 158 192 216 212 225 218 213 244 250 252 242 241 217 173 170 175 179 175 174 182 181 181 183 172 171 195
190 189 188 187 187 187 188 188 189 191 191 190 190 191 192 196 201 204 207 212 215 218 223 226 234 242 247 256 262 274 261 207 185 191 192 179 160 112 48 34 34 31 76 94 97 101 90 61 50 43 58 38 38 70 56 51 47 59 102 310 311 274 254 226 218 214 232 230 218 235 250 261 257 250 245 187 181 178 174 169 171 176 169 162 171 173 178 207
197 196 196 195 194 192 193 193 195 197 196 199 200 200 202 205 210 213 215 218 221 226 230 234 238 237 243 232 207 240 233 184 185 192 181 181 179 162 356 14 22 7 67 107 118 105 94 74 46 26 38 29 36 57 53 86 158 342 321 307 290 273 275 248 223 221 225 227 216 203 238 266 250 227 225 185 181 180 173 166 172 179 171 164 176 191 203 220
201 201 201 200 200 199 198 199 200 201 202 204 205 206 210 213 217 220 223 226 228 232 234 238 239 236 236 215 200 206 190 180 189 192 187 188 197 256 299 318 357 19 65 138 128 113 102 82 36 16 44 42 37 62 67 93 143 310 313 306 287 281 283 255 229 221 211 213 214 202 239 282 221 215 221 187 180 185 180 169 175 184 179 178 188 205 219 228
206 204 203 202 204 203 204 205 205 207 208 209 211 212 215 219 222 225 229 231 233 236 238 239 238 234 230 224 226 225 199 189 194 201 201 200 228 268 280 285 294 162 230 204 138 139 126 55 22 52 83 78 28 65 80 76 153 268 284 305 299 319 304 253 229 211 194 178 199 189 308 303 223 224 209 181 177 179 179 172 176 184 186 188 195 207 216 230
209 207 207 206 206 207 210 212 212 215 217 218 220 221 224 226 227 230 232 234 237 239 241 241 242 240 234 236 240 233 220 216 213 213 213 225 255 265 260 262 262 230 224 239 194 175 172 336 181 127 92 68 31 87 144 264 235 266 259 177 315 353 327 264 223 193 183 169 179 163 331 281 250 216 176 172 174 171 173 173 179 185 188 195 199 205 211 219
211 211 212 211 212 213 214 217 219 222 225 228 229 231 234 232 232 233 234 236 239 242 244 245 249 248 238 241 250 238 227 227 227 227 229 244 253 251 253 253 251 238 225 235 235 250 272 228 186 171 128 63 84 109 323 317 178 238 337 71 8 4 290 306 152 163 163 189 178 146 193 263 270 204 173 174 176 176 177 177 183 188 188 197 202 207 213 215
213 214 215 216 217 218 220 222 223 225 229 231 233 236 237 234 235 234 234 236 236 240 243 245 249 249 245 247 247 234 225 227 230 234 236 241 241 243 251 244 238 235 224 235 236 240 203 168 163 134 116 108 96 77 3 351 344 75 53 321 335 153 264 315 135 160 154 196 180 143 208 267 275 200 180 179 180 184 186 183 188 193 192 197 205 209 214 219
218 217 218 219 219 221 225 225 226 229 231 232 231 232 235 235 234 233 233 232 234 237 238 240 237 231 251 255 240 228 225 227 230 234 235 234 236 238 237 233 233 224 209 206 196 178 169 160 138 124 127 127 107 84 46 9 339 358 126 244 275 186 263 319 245 194 162 142 188 197 215 270 273 198 186 186 188 191 192 190 193 195 197 197 203 209 211 222
223 222 223 223 223 225 227 227 229 231 232 231 227 229 233 233 232 233 230 227 228 227 223 224 225 231 250 248 237 231 227 227 230 232 232 230 229 229 225 219 196 178 170 162 166 159 158 153 131 138 147 101 107 92 60 4 310 321 88 226 251 216 206 249 291 253 166 136 203 233 227 247 267 201 190 196 196 197 198 196 194 193 197 196 198 205 210 222
226 227 227 226 227 229 229 229 230 231 231 228 225 226 227 229 229 228 226 224 217 209 221 211 189 240 254 233 227 232 230 226 227 225 220 216 215 214 209 197 161 151 146 144 160 154 143 131 121 101 7 22 117 108 105 218 210 203 182 212 266 286 224 197 260 241 170 163 217 221 242 250 266 229 202 203 201 203 208 203 194 192 194 193 195 199 206 216
230 231 231 230 231 232 231 230 229 231 229 225 223 221 221 223 224 226 223 214 197 179 215 208 192 177 246 223 220 228 228 219 218 214 208 204 200 189 170 154 144 142 140 131 156 164 148 93 80 78 279 215 198 167 184 205 186 172 172 167 191 242 277 232 233 221 173 180 233 221 234 248 256 244 213 211 207 207 214 208 195 194 194 193 193 196 202 209
234 234 235 234 233 233 232 230 228 228 225 223 219 211 209 196 189 227 217 212 214 215 221 208 206 213 211 193 209 215 208 198 203 204 199 195 188 173 154 148 142 134 145 149 168 178 155 124 142 205 216 205 204 201 205 212 204 194 161 162 193 211 273 270 256 251 165 166 246 233 237 258 259 249 220 216 212 211 215 208 195 195 195 194 191 192 200 207
236 234 233 234 233 232 231 228 227 225 222 219 211 201 193 184 181 219 210 221 234 233 233 230 223 229 230 228 219 209 191 179 193 199 191 186 181 169 160 155 139 158 213 157 134 151 150 166 216 222 218 202 209 215 216 227 231 244 225 214 246 239 254 267 261 254 184 196 265 271 271 274 267 266 241 216 207 212 212 203 196 197 195 194 192 193 199 204
235 234 232 231 229 228 228 226 225 223 219 214 208 201 196 198 206 216 210 239 251 238 237 235 231 233 232 232 227 206 187 171 185 192 181 175 176 176 170 158 141 194 195 132 104 132 186 226 233 231 223 210 236 227 189 208 212 212 200 174 241 267 266 295 323 301 88 177 258 288 279 270 268 269 257 220 207 215 214 207 203 198 193 192 192 195 197 199
235 233 231 229 225 222 221 222 223 220 216 212 208 202 199 200 206 212 216 265 270 244 235 231 227 225 220 219 211 198 192 184 184 186 179 174 179 184 171 157 173 186 154 149 154 168 210 243 235 228 219 209 246 230 143 145 182 175 163 158 228 263 262 289 312 300 286 244 255 289 280 269 268 263 265 232 208 203 207 211 209 203 200 200 200 201 201 200
236 232 231 227 222 217 213 215 218 218 215 212 209 203 198 192 192 202 218 262 284 249 237 235 228 224 218 212 206 202 203 204 197 188 181 178 177 177 179 175 172 170 187 191 184 191 211 224 217 205 204 205 221 218 163 162 250 251 202 186 211 237 218 229 273 324 325 328 316 330 312 285 257 253 266 282 187 182 182 190 192 198 204 203 200 203 207 210
233 230 229 221 216 211 208 214 215 214 213 212 212 203 192 179 167 170 199 275 288 256 242 233 230 231 222 214 209 203 207 216 211 198 188 185 180 170 184 190 177 183 208 197 189 217 231 228 213 162 190 206 204 216 192 176 215 279 238 202 204 216 224 239 302 17 3 326 309 47 330 286 282 262 255 151 168 194 184 178 176 183 191 192 193 197 202 208
231 228 223 214 210 199 201 217 214 209 214 215 211 198 185 167 146 149 131 20 289 230 188 204 212 224 213 205 196 188 214 233 211 203 197 195 194 185 174 185 186 202 198 182 191 236 225 209 208 189 186 193 198 221 212 169 162 254 250 202 197 206 216 234 318 50 287 267 290 82 111 276 286 265 247 191 196 219 211 201 190 183 182 185 191 194 197 198
234 228 221 214 206 193 196 212 211 206 209 211 206 191 178 164 146 140 111 19 285 186 148 178 185 188 193 189 184 179 216 191 177 192 193 192 199 196 192 186 179 199 178 150 226 263 168 175 189 187 184 184 189 216 215 163 145 226 245 157 140 160 181 188 130 133 224 252 317 48 124 277 276 256 251 185 192 233 236 227 213 197 189 187 190 192 194 195
240 231 223 215 208 201 198 205 211 208 200 194 192 181 170 163 154 132 110 352 251 150 142 173 167 171 173 176 182 177 136 143 147 182 185 186 194 194 207 204 175 190 177 154 216 271 145 166 178 171 176 191 193 221 201 155 143 237 226 129 110 123 138 124 107 129 304 354 299 247 134 266 272 264 308 138 192 245 237 224 216 203 197 195 195 193 192 193
237 232 228 218 211 204 194 198 206 200 188 176 172 171 164 158 149 110 91 220 181 126 137 160 154 160 156 163 180 170 132 134 133 171 177 184 190 185 203 205 171 175 196 190 208 251 144 181 184 161 171 198 189 310 222 163 176 196 145 87 68 70 71 68 95 106 24 330 243 206 161 227 269 248 127 122 226 244 241 226 205 199 201 202 200 196 193 192
231 232 231 216 208 200 189 192 197 183 171 166 164 164 160 153 134 98 165 226 199 135 129 151 160 163 155 152 177 164 134 88 120 150 164 176 183 178 160 179 141 118 216 309 242 247 17 159 183 142 161 166 140 67 20 104 156 132 92 59 46 27 31 39 55 87 55 278 224 193 187 193 264 271 186 191 227 221 220 200 190 194 197 199 200 197 195 194
232 231 228 219 214 205 195 194 193 179 167 162 162 160 155 144 103 155 197 231 333 148 120 143 170 160 159 155 166 170 138 95 142 149 155 161 171 166 135 158 123 76 336 331 328 315 349 111 213 149 141 124 108 69 20 35 114 109 85 83 65 351 12 22 2 58 132 257 230 200 192 185 227 262 228 235 256 227 199 187 185 186 189 192 194 194 194 194
235 230 229 228 223 214 209 205 194 177 166 161 163 161 153 129 221 218 206 81 23 198 149 165 188 164 169 168 168 169 141 146 171 161 161 159 170 184 179 184 174 142 258 237 241 307 287 227 200 129 156 154 124 86 17 4 42 92 100 108 104 308 360 2 313 146 224 249 251 204 178 196 236 251 259 259 260 257 237 203 187 183 184 186 187 188 190 192
236 230 229 230 227 225 221 210 192 179 166 162 165 162 148 171 202 214 212 181 193 201 140 150 170 163 167 169 174 164 126 152 178 170 167 147 170 209 233 229 188 170 202 191 191 208 269 297 188 136 233 191 163 151 181 258 165 144 135 135 151 165 170 265 247 246 260 261 283 202 159 227 269 266 261 258 255 286 278 221 196 189 185 184 184 185 187 190
238 230 225 225 228 232 223 202 190 181 169 165 165 160 168 202 208 208 208 209 182 90 110 136 137 147 167 178 181 163 142 195 175 157 153 146 168 215 238 241 218 194 97 144 181 181 211 291 200 177 209 184 182 185 162 141 154 176 153 137 153 158 170 217 212 212 252 273 293 274 163 197 220 248 263 271 318 336 289 203 189 186 184 182 181 182 186 189
241 230 222 222 224 225 215 197 191 183 174 171 166 166 187 200 221 217 206 191 145 96 84 117 123 139 188 224 201 177 166 198 171 147 162 172 183 200 198 213 207 179 133 168 215 165 197 264 231 180 149 167 184 189 127 113 138 219 128 115 174 184 174 208 211 185 185 286 280 217 217 217 204 251 286 329 4 22 96 161 163 166 173 175 177 181 186 189
240 228 220 221 224 223 213 198 191 185 180 177 173 189 197 205 210 203 193 164 155 144 110 111 121 146 192 210 218 208 182 106 158 159 196 199 209 203 195 205 194 188 181 174 177 155 177 270 299 29 53 162 181 167 135 144 180 180 136 175 209 178 153 186 276 352 104 262 261 193 240 291 293 279 325 38 32 37 93 145 152 160 168 172 177 183 187 190
233 224 217 220 225 224 214 200 192 187 186 188 199 202 205 219 205 159 179 170 145 137 133 163 186 162 182 192 198 203 182 99 165 171 188 196 233 207 197 207 190 194 203 185 180 188 157 248 299 59 175 257 25 85 83 88 131 134 179 205 182 61 90 133 262 341 53 255 269 195 219 259 240 251 336 56 170 221 201 164 154 162 170 175 181 185 189 191
230 222 219 223 226 222 210 199 193 190 189 195 224 224 222 223 211 177 186 174 140 144 163 205 195 160 177 188 190 190 180 169 177 180 184 193 247 204 180 195 192 194 204 199 213 233 147 185 280 59 193 267 24 107 88 19 103 131 185 188 123 110 205 136 170 225 198 247 276 252 224 221 204 214 213 191 209 210 199 182 172 175 179 182 184 185 189 191
231 219 224 229 225 218 209 197 191 189 189 197 217 224 226 220 220 218 224 226 156 168 190 208 197 175 182 177 167 180 188 184 170 173 187 189 236 202 173 182 195 195 197 191 197 228 150 195 249 302 223 258 26 123 171 207 113 66 60 146 109 155 175 167 180 175 169 224 266 292 258 233 226 204 181 198 209 194 183 188 194 190 186 186 185 186 189 190
231 214 234 235 224 220 211 198 192 190 186 198 209 214 209 208 221 229 239 252 213 183 205 204 189 187 191 175 163 173 188 189 170 180 207 189 208 229 184 180 179 189 192 190 193 184 120 209 226 318 331 175 172 203 188 187 186 153 150 183 202 164 129 174 223 155 144 191 237 277 278 262 245 198 186 209 213 189 185 191 194 192 188 189 190 190 190 191
233 218 243 236 228 220 205 193 193 196 187 200 211 218 210 198 205 217 231 242 246 236 215 194 191 191 180 169 175 175 173 182 181 188 217 199 201 243 197 187 176 167 176 187 202 199 176 196 172 153 244 205 220 246 215 191 183 173 186 188 185 176 150 197 248 209 162 197 188 207 270 266 233 191 207 227 226 197 195 193 186 189 190 191 194 194 193 193
232 234 235 227 225 208 194 187 193 190 198 208 208 214 205 201 190 196 214 227 237 254 227 207 210 198 180 174 182 174 167 182 192 193 210 210 206 212 200 192 179 164 156 175 205 193 152 129 137 171 207 208 242 292 8 116 103 98 193 188 181 188 170 186 229 219 192 235 162 139 274 273 241 215 230 259 263 213 199 193 184 188 191 191 194 196 195 195
230 248 239 221 219 199 187 188 198 186 209 214 203 219 200 200 204 175 196 212 214 222 215 233 239 202 205 182 175 177 176 184 196 195 201 211 209 215 203 189 176 165 158 170 199 161 113 120 154 209 314 348 329 340 10 37 65 82 235 185 183 205 194 195 210 177 190 222 147 146 262 264 288 289 291 308 286 204 191 191 186 186 188 190 194 195 195 196
229 247 243 216 211 197 187 193 187 190 209 187 191 220 210 215 221 194 193 202 197 192 205 222 233 207 208 135 150 182 184 191 206 200 193 199 204 209 183 188 180 173 172 182 176 167 166 162 147 158 284 317 333 348 346 344 200 212 230 183 198 209 201 211 153 136 243 205 152 189 246 237 291 316 338 339 319 171 181 190 187 182 183 188 193 194 195 196
224 245 243 213 201 193 193 201 188 189 202 184 193 209 203 220 222 210 206 197 198 198 190 218 229 182 172 122 86 180 186 185 197 187 166 174 205 354 62 203 193 182 179 172 166 167 170 167 160 178 219 233 230 207 200 207 196 210 195 186 208 207 197 204 207 214 237 172 153 208 245 249 308 320 310 310 291 167 177 186 188 188 187 188 190 191 194 197
204 217 233 214 205 204 209 204 191 186 188 185 199 206 201 214 218 209 208 207 210 205 193 211 205 169 196 179 157 189 195 73 70 158 174 168 206 314 9 55 157 158 138 137 154 154 134 193 196 200 218 226 223 203 173 142 152 195 203 197 207 209 200 197 217 223 210 139 198 223 234 256 274 254 240 239 212 198 187 181 186 189 187 187 188 191 195 199
198 202 195 186 211 223 237 218 195 195 186 181 182 187 199 207 204 193 204 211 212 203 199 302 184 199 210 191 190 202 182 110 99 172 176 157 172 309 18 67 81 126 120 135 154 142 104 214 211 207 225 236 231 181 169 158 177 197 201 203 206 206 198 197 220 221 149 145 244 227 196 242 248 216 221 221 198 217 211 187 186 185 184 185 187 191 194 197
202 214 205 198 201 213 225 222 203 200 189 181 183 181 190 201 200 188 201 206 198 190 190 236 217 218 217 199 195 203 173 161 198 190 164 147 155 112 48 31 56 123 107 115 141 126 137 210 206 194 231 247 232 135 162 167 190 200 201 208 206 199 197 200 218 219 160 195 246 232 189 229 239 216 213 202 195 204 196 186 185 181 181 183 185 189 192 195
202 214 204 202 207 205 216 215 195 196 195 182 190 195 186 198 204 199 188 175 191 197 193 211 224 222 220 208 195 201 190 188 214 208 170 152 164 142 122 79 116 108 75 91 96 99 148 208 176 173 234 249 208 145 144 157 193 233 216 216 211 205 204 205 218 220 201 220 240 228 206 233 237 226 216 203 201 195 176 175 177 176 179 182 183 188 192 196
206 214 194 190 213 225 218 202 163 185 208 188 197 202 191 200 205 204 186 168 189 201 192 213 226 216 211 211 199 212 214 205 219 218 164 151 179 174 180 184 150 117 90 111 30 28 168 206 113 138 234 252 203 154 137 161 195 239 238 228 210 198 205 217 228 223 215 232 238 233 248 254 253 247 184 176 180 168 162 176 177 177 181 181 183 188 192 197
221 218 199 180 210 217 209 184 157 192 217 196 205 204 198 208 205 201 200 194 201 196 185 210 224 210 200 208 205 221 222 213 222 210 165 177 195 186 191 170 134 132 138 156 157 136 172 211 72 120 219 245 200 164 165 150 155 261 254 237 193 164 196 215 223 215 210 225 231 230 243 246 223 106 115 142 157 158 168 182 181 183 184 182 185 187 190 201
235 230 214 198 206 202 194 178 176 201 206 192 208 212 211 219 208 194 201 213 217 213 203 211 216 185 172 203 212 226 227 219 228 210 180 193 200 187 191 181 159 159 163 161 168 159 162 177 160 160 210 246 191 152 155 123 122 263 258 227 184 192 213 216 221 220 213 215 218 225 234 217 169 150 130 139 159 165 174 181 182 186 187 185 188 194 208 224